Weather History for Rolla, MO

Change the Weather History Date:

Wednesday, April 10, 2013

  Actual Average Record
Temperature  
Mean Temperature 59 °F 54 °F  
Max Temperature 73 °F 65 °F 86 °F (2011)
Min Temperature 44 °F 42 °F 25 °F (1960)
Degree Days  
Heating Degree Days 6 12  
Month to date heating degree days 122 133  
Since 1 July heating degree days 4527 4537  
Cooling Degree Days 0 1  
Month to date cooling degree days 6 4  
Year to date cooling degree days 6 8  
Growing Degree Days 9 (Base 50)    
Moisture  
Dew Point 58 °F    
Average Humidity 83    
Maximum Humidity 93    
Minimum Humidity 73    
Precipitation  
Precipitation 1.38 in 0.13 in 2.25 in (1954)
Month to date precipitation 1.49 1.30  
Year to date precipitation 9.46 8.85  
Sea Level Pressure  
Sea Level Pressure 29.70 in    
Wind  
Wind Speed 9 mph (NW)    
Max Wind Speed 41 mph    
Max Gust Speed 54 mph    
Visibility 7 miles    
Events Fog , Rain , Thunderstorm    
T = Trace of Precipitation, MM = Missing Value Source: NWS Daily Summary

Daily Weather History Graph

Daily Weather History Graph

Search for Another Location

Airport:

Trip Planner

Search our weather history database for the weather conditions in past years. The results will help you decide how hot, cold, wet, or windy it might be!

Date:

Astronomy

Apr. 10, 2013 Rise Set
Actual Time 6:38 AM CDT 7:38 PM CDT
Civil Twilight 6:11 AM CDT 8:05 PM CDT
Nautical Twilight 5:39 AM CDT 8:37 PM CDT
Astronomical Twilight 5:06 AM CDT 9:11 PM CDT
Moon 6:35 AM CDT (4/10) 8:13 PM CDT (4/10)
Length of Visible Light 13h 54m
Length of Day
13h 00m
New Moon, 0% of the Moon is Illuminated
Apr 10
New Moon
Apr 18
First Quarter
Apr 25
Full
May 2
Last Quarter
May 9
New

Hourly Weather History & Observations

Time (CDT) Temp. Windchill Dew Point Humidity Pressure Visibility Wind Dir Wind Speed Gust Speed Precip Events Conditions
12:53 AM 69.1 °F - 61.0 °F 75% 29.73 in 10.0 mi SSE 11.5 mph - N/A   Scattered Clouds
1:53 AM 70.0 °F - 63.0 °F 78% 29.75 in 10.0 mi South 15.0 mph - N/A   Clear
2:53 AM 70.0 °F - 63.0 °F 78% 29.74 in 10.0 mi South 10.4 mph - N/A   Mostly Cloudy
3:53 AM 70.0 °F - 63.0 °F 78% 29.74 in 10.0 mi South 6.9 mph - N/A   Overcast
4:53 AM 69.1 °F - 63.0 °F 81% 29.72 in 10.0 mi South 10.4 mph - N/A   Partly Cloudy
5:53 AM 69.1 °F - 63.0 °F 81% 29.74 in 10.0 mi SSW 10.4 mph - N/A   Partly Cloudy
6:36 AM 62.6 °F - 55.4 °F 77% 29.79 in 10.0 mi North 11.5 mph - N/A   Overcast
6:53 AM 63.0 °F - 55.0 °F 75% 29.77 in 10.0 mi North 15.0 mph 21.9 mph N/A   Overcast
7:53 AM 61.0 °F - 55.0 °F 81% 29.77 in 10.0 mi ENE 8.1 mph - N/A Thunderstorm Overcast
8:32 AM 60.8 °F - 55.4 °F 82% 29.79 in 10.0 mi ENE 3.5 mph - 0.02 in   Overcast
8:53 AM 60.1 °F - 55.9 °F 86% 29.75 in 10.0 mi ENE 8.1 mph - 0.02 in Thunderstorm Overcast
9:14 AM 57.2 °F - 55.4 °F 94% 29.81 in 10.0 mi North 9.2 mph 23.0 mph 0.00 in Rain , Thunderstorm Light Rain
9:22 AM 57.2 °F - 55.4 °F 94% 29.81 in 10.0 mi NW 12.7 mph - 0.00 in Rain Light Rain
9:53 AM 57.9 °F - 55.0 °F 90% 29.78 in 10.0 mi NE 9.2 mph - 0.02 in Rain Light Rain
10:53 AM 61.0 °F - 57.9 °F 90% 29.78 in 10.0 mi East 8.1 mph - 0.00 in   Overcast
11:53 AM 68.0 °F - 61.0 °F 78% 29.77 in 10.0 mi Calm Calm - N/A   Mostly Cloudy
12:53 PM 72.0 °F - 63.0 °F 73% 29.75 in 10.0 mi West 10.4 mph 16.1 mph N/A   Mostly Cloudy
1:16 PM 69.8 °F - 62.6 °F 78% 29.75 in 10.0 mi NNW 8.1 mph - 0.00 in Rain , Thunderstorm Light Thunderstorms and Rain
1:34 PM 68.0 °F - 64.4 °F 88% 29.76 in 2.0 mi North 6.9 mph - 0.06 in Rain , Thunderstorm Light Thunderstorms and Rain
1:43 PM 69.8 °F - 64.4 °F 83% 29.75 in 10.0 mi North 8.1 mph - 0.06 in Thunderstorm Thunderstorm
1:53 PM 70.0 °F - 64.9 °F 84% 29.70 in 10.0 mi North 9.2 mph - 0.06 in Thunderstorm Scattered Clouds
2:02 PM 69.8 °F - 64.4 °F 83% 29.73 in 10.0 mi NNW 10.4 mph - N/A   Partly Cloudy
2:53 PM 71.1 °F - 63.0 °F 75% 29.68 in 10.0 mi North 5.8 mph - N/A   Partly Cloudy
3:14 PM 71.6 °F - 64.4 °F 78% 29.69 in 10.0 mi NNE 6.9 mph - 0.00 in Rain , Thunderstorm Light Thunderstorms and Rain
3:25 PM 69.8 °F - 64.4 °F 83% 29.68 in 10.0 mi NNE 6.9 mph - 0.00 in Thunderstorm Mostly Cloudy
3:53 PM 68.0 °F - 64.0 °F 87% 29.63 in 8.0 mi ENE 5.8 mph - 0.07 in Rain , Thunderstorm Light Rain
4:08 PM 69.8 °F - 66.2 °F 88% 29.65 in 10.0 mi NE 4.6 mph - 0.01 in Rain Light Rain
4:17 PM 69.8 °F - 64.4 °F 83% 29.63 in 10.0 mi NNE 5.8 mph - 0.01 in Thunderstorm Mostly Cloudy
4:53 PM 68.0 °F - 66.0 °F 93% 29.57 in 10.0 mi North 6.9 mph - 0.06 in Thunderstorm Thunderstorm
5:11 PM 66.2 °F - 64.4 °F 94% 29.62 in 1.0 mi WSW 11.5 mph - 0.16 in Rain , Thunderstorm Light Thunderstorms and Rain
5:14 PM 66.2 °F - 64.4 °F 94% 29.62 in 0.5 mi Calm Calm - 0.22 in Fog , Rain , Thunderstorm Heavy Thunderstorms and Rain
5:22 PM 66.2 °F - 64.4 °F 94% 29.61 in 1.2 mi Variable 5.8 mph - 0.24 in Rain , Thunderstorm Thunderstorms and Rain
5:26 PM 66.2 °F - 64.4 °F 94% 29.61 in 3.0 mi ESE 12.7 mph - 0.25 in Rain , Thunderstorm Thunderstorms and Rain
5:35 PM 66.2 °F - 64.4 °F 94% 29.62 in 4.0 mi East 12.7 mph - 0.26 in Rain , Thunderstorm Thunderstorms and Rain
5:53 PM 64.9 °F - 63.0 °F 93% 29.57 in 9.0 mi North 6.9 mph - 0.27 in Rain , Thunderstorm Light Thunderstorms and Rain
6:01 PM 64.4 °F - 62.6 °F 94% 29.59 in 9.0 mi NW 6.9 mph - 0.00 in Thunderstorm Overcast
6:09 PM 64.4 °F - 62.6 °F 94% 29.60 in 5.0 mi NW 10.4 mph - N/A Rain , Thunderstorm Light Rain
6:17 PM 62.6 °F - 60.8 °F 94% 29.61 in 6.0 mi WNW 4.6 mph - 0.00 in Rain , Thunderstorm Light Rain
6:27 PM 60.8 °F - 60.8 °F 100% 29.64 in 1.8 mi WNW 19.6 mph - 0.08 in Rain , Thunderstorm Heavy Thunderstorms and Rain
6:51 PM 53.6 °F - 51.8 °F 94% 29.73 in 1.2 mi West 13.8 mph 40.3 mph 0.53 in Rain Heavy Rain
6:53 PM 54.0 °F - 52.0 °F 93% 29.71 in 1.2 mi West 13.8 mph 34.5 mph 0.57 in Rain , Thunderstorm Heavy Thunderstorms and Rain
7:06 PM 53.6 °F - 53.6 °F 100% 29.71 in 3.0 mi West 11.5 mph - 0.07 in Rain , Thunderstorm Heavy Thunderstorms and Rain
7:34 PM 53.6 °F - 53.6 °F 100% 29.69 in 7.0 mi West 6.9 mph - 0.12 in Rain Light Rain
7:53 PM 54.0 °F - 53.1 °F 97% 29.68 in 10.0 mi SW 5.8 mph - 0.13 in Rain Light Rain
8:14 PM 53.6 °F - 53.6 °F 100% 29.69 in 8.0 mi WSW 9.2 mph - 0.02 in Rain Light Rain
8:26 PM 53.6 °F - 53.6 °F 100% 29.67 in 6.0 mi West 9.2 mph - 0.05 in Rain Rain
8:45 PM 53.6 °F - 51.8 °F 94% 29.70 in 6.0 mi West 11.5 mph - 0.08 in Rain , Thunderstorm Rain
8:53 PM 53.1 °F - 52.0 °F 96% 29.68 in 5.0 mi West 8.1 mph - 0.11 in Rain , Thunderstorm Rain
9:05 PM 51.8 °F - 51.8 °F 100% 29.69 in 5.0 mi West 5.8 mph - 0.02 in Rain Rain
9:28 PM 51.8 °F - 51.8 °F 100% 29.66 in 9.0 mi WNW 5.8 mph - 0.06 in Rain Light Rain
9:53 PM 52.0 °F - 51.1 °F 97% 29.65 in 10.0 mi Calm Calm - 0.06 in   Overcast
10:02 PM 51.8 °F - 50.0 °F 94% 29.67 in 10.0 mi West 9.2 mph - N/A   Overcast
10:23 PM 50.0 °F - 48.2 °F 94% 29.69 in 2.5 mi West 17.3 mph - 0.01 in   Overcast
10:40 PM 48.2 °F - 46.4 °F 93% 29.70 in 7.0 mi West 18.4 mph 23.0 mph 0.01 in   Overcast
10:53 PM 46.9 °F - 45.0 °F 93% 29.70 in 2.0 mi West 18.4 mph 25.3 mph 0.01 in   Overcast
11:02 PM 46.4 °F 39.0 °F 44.6 °F 93% 29.71 in 2.5 mi West 19.6 mph 25.3 mph N/A   Overcast
11:17 PM 46.4 °F 40.1 °F 44.6 °F 93% 29.71 in 4.0 mi West 15.0 mph 26.5 mph N/A   Overcast
11:28 PM 46.4 °F 39.5 °F 44.6 °F 93% 29.71 in 4.0 mi West 17.3 mph 23.0 mph N/A   Overcast
11:53 PM 45.0 °F 37.4 °F 43.0 °F 93% 29.71 in 4.0 mi West 18.4 mph 24.2 mph N/A   Overcast